Location: Boussy-Saint-Antoine
(48.6830°N, 2.5330°E)
Time: 08:42:04
(UTC+02:00)

KKS-1 - Pass Details

Date: 25 July 2019
Orbit: 637 x 650 km, 98.3° (Epoch: 23 August)

Event Time Altitude Azimuth Distance (km) Brightness Sun altitude
Rises 22:35:29 0° 1° (N) 2,952 ? -8.4°
Reaches altitude 10° 22:38:16 10° 343° (NNW) 2,038 ? -8.7°
Maximum altitude 22:41:15 18° 300° (WNW) 1,569 ? -9.1°
Drops below altitude 10° 22:44:13 10° 258° (WSW) 2,031 ? -9.5°
Sets 22:46:59 0° 240° (WSW) 2,938 ? -9.8°
